Theta_e
329 329 328 327 326 325 326 327 326 326 327 329 330 329 330 330 330 330 325 325 329 328 327 337 340 341 340 340 339 337 334 332 330 329 329 330 331 333 336 335 335 333 331
328 328 328 327 327 327 326 326 325 326 327 329 329 330 330 330 330 327 322 327 328 327 328 334 339 340 340 340 334 332 334 330 330 329 329 329 329 335 334 334 330 328 323
328 328 329 329 328 326 323 325 325 326 327 328 329 329 329 329 327 325 325 329 331 327 332 333 339 341 341 339 335 335 333 329 331 329 327 330 333 334 333 330 327 326 323
328 328 329 329 328 326 325 325 326 326 327 327 329 329 328 328 327 326 328 329 331 333 335 335 337 341 340 338 336 335 333 332 329 327 329 331 332 330 327 327 327 325 324
329 328 329 328 326 326 325 326 326 325 327 328 329 328 327 328 327 328 329 331 334 335 337 335 337 339 340 338 336 335 332 330 327 328 331 331 327 324 326 327 325 325 324
329 329 327 326 325 326 325 326 326 326 326 327 327 327 328 328 328 327 330 331 332 335 335 337 337 330 336 337 336 334 331 330 328 331 330 326 319 325 326 325 324 324 319
330 328 327 325 324 324 325 326 326 326 327 327 327 326 329 329 329 329 328 333 331 334 335 337 335 326 331 338 334 333 332 329 328 329 327 325 326 322 322 324 324 319 318
329 328 326 323 321 324 326 326 326 326 327 327 327 327 329 329 330 331 331 333 332 334 335 336 335 334 330 336 333 333 331 328 328 329 323 325 321 315 316 319 322 323 318
328 328 327 325 325 326 327 326 325 326 326 327 327 328 328 328 331 331 332 332 332 332 333 334 334 332 334 335 333 332 329 328 330 328 324 323 323 316 322 323 323 317 318
329 326 326 326 327 327 326 325 325 326 326 327 327 329 327 331 332 334 331 332 331 332 333 334 334 332 334 334 332 330 328 331 327 326 325 322 318 323 324 323 321 320 316
328 327 327 326 327 327 326 326 325 326 326 327 328 328 330 330 329 332 334 331 331 333 333 334 333 332 332 331 331 331 330 326 323 325 325 324 326 326 324 323 319 318 318
327 328 327 327 327 327 326 326 326 327 328 326 326 325 329 330 331 332 331 330 330 330 331 329 332 332 331 329 329 325 323 325 324 324 324 326 325 324 323 320 322 322 321
328 328 327 326 326 327 327 326 327 327 328 328 329 327 325 325 326 331 331 330 331 329 329 330 330 330 329 329 325 325 326 326 323 321 319 324 324 322 320 322 322 322 322
329 328 327 327 327 327 328 327 327 328 328 328 327 325 326 326 327 331 329 331 332 331 329 329 330 329 328 326 327 324 325 323 321 321 323 325 322 320 318 318 319 319 318
328 328 328 328 329 328 327 328 328 328 328 327 326 324 324 328 331 329 331 330 330 332 332 329 329 328 326 327 324 324 325 324 324 324 323 320 315 320 317 316 316 316 315
328 328 328 328 329 329 329 329 327 328 329 327 327 327 328 329 329 331 330 328 329 329 331 328 328 327 327 327 326 325 324 324 324 321 321 321 321 317 314 316 315 314 315
328 328 328 329 329 327 327 329 328 327 329 328 329 328 328 328 329 329 329 328 329 329 329 328 328 326 327 325 326 325 326 324 322 321 320 318 317 315 315 315 314 314 313
329 328 328 328 327 328 327 328 327 328 328 327 328 328 328 328 328 327 327 330 329 329 328 328 328 328 327 327 325 325 324 323 323 319 317 316 316 316 316 315 315 313 312
330 329 328 328 328 328 326 327 327 327 327 327 327 328 329 328 328 326 328 329 329 329 328 328 328 326 326 325 325 325 324 323 321 318 317 315 314 314 314 315 316 315 315
330 330 330 328 329 326 326 326 326 326 326 327 328 330 330 329 330 330 328 328 328 328 328 327 327 326 325 325 325 324 323 322 321 320 321 321 320 319 318 317 315 312 308
330 330 330 329 328 325 325 326 326 326 327 326 328 328 328 329 328 328 328 328 328 327 327 327 326 324 324 325 324 322 321 323 323 323 320 319 316 311 308 306 306 305 305
330 330 329 329 328 327 325 325 325 325 327 327 327 327 328 328 328 328 328 328 327 327 327 326 326 325 325 326 325 323 324 324 324 322 316 312 310 309 306 306 305 305 304
331 330 330 329 326 325 324 324 325 327 327 326 326 327 327 328 327 327 327 327 327 326 326 326 325 326 325 326 326 325 324 324 324 322 315 311 310 308 305 304 304 302 299
330 328 328 327 325 325 325 325 325 326 326 326 327 327 327 329 326 327 326 327 326 326 326 326 326 327 327 326 326 324 324 321 319 319 316 313 311 307 304 300 298 295 293
329 327 327 327 326 326 326 326 326 326 326 327 326 327 328 327 327 326 324 325 325 325 324 325 327 328 327 322 318 320 321 322 320 317 314 313 312 309 307 304 297 292 292
328 329 327 327 327 326 326 326 326 326 327 326 327 327 327 326 326 326 326 326 326 324 321 322 320 324 322 319 320 325 324 325 320 315 313 313 311 311 311 305 300 298 296
Wind_Speed
16 16 16 15 13 11 11 10 10 10 10 11 13 14 15 16 14 12 13 16 16 17 15 14 16 19 21 22 33 29 24 23 20 20 19 18 19 21 21 18 17 16 15
16 15 15 15 14 13 11 10 9 9 10 11 11 13 14 13 12 13 13 13 16 16 15 14 16 20 26 34 31 31 30 27 24 23 20 20 19 20 18 17 15 15 15
19 17 15 14 14 13 13 9 8 8 9 9 11 10 11 11 11 11 12 10 12 15 13 14 15 24 30 36 33 33 31 33 30 26 24 22 21 19 18 16 16 17 17
18 14 14 13 11 12 10 9 9 9 10 10 10 10 10 8 8 9 10 11 10 10 9 12 18 28 36 36 34 32 33 33 32 29 27 25 22 20 18 18 18 17 18
15 13 12 11 10 11 10 9 9 10 10 9 8 8 7 6 7 7 10 9 8 8 7 9 16 29 37 35 32 32 33 35 33 30 27 25 22 20 19 18 18 19 18
12 12 13 12 11 10 9 9 9 9 8 9 9 7 6 6 6 8 7 7 7 5 6 6 12 12 21 31 34 33 33 35 35 29 26 25 22 23 20 17 17 17 16
11 12 11 10 11 10 9 9 9 10 9 8 8 4 3 4 4 5 8 3 3 3 6 7 19 18 20 26 32 32 33 36 34 30 25 25 24 20 19 18 16 15 15
8 9 10 11 12 9 9 10 11 10 8 9 6 8 4 4 4 3 5 4 3 5 7 9 20 22 20 30 32 34 35 39 33 30 27 25 21 19 16 16 16 16 14
6 8 9 9 9 10 10 10 11 12 10 8 6 4 4 3 6 2 5 5 5 8 8 11 18 24 25 29 32 35 38 37 33 29 29 24 20 16 19 19 17 14 12
3 5 8 9 9 7 6 8 11 12 10 12 7 4 3 7 3 4 5 6 8 10 11 14 21 25 29 31 34 40 39 39 33 30 27 20 20 20 19 18 15 13 11
3 4 7 8 7 6 8 10 13 12 11 11 9 7 7 5 4 3 4 4 9 13 16 22 24 28 33 32 29 35 39 40 36 29 24 21 22 20 18 16 14 11 9
4 5 5 6 5 6 8 10 12 11 10 9 13 12 6 4 4 4 4 3 5 7 17 15 20 27 25 27 29 45 41 38 33 27 23 21 20 19 17 15 13 11 9
6 7 6 6 6 7 8 9 11 11 9 7 10 11 5 4 2 4 11 4 2 5 7 20 24 27 32 34 42 41 36 31 26 23 20 18 18 17 16 14 12 9 7
7 8 7 4 4 7 7 9 9 9 7 4 9 9 6 3 6 11 12 14 5 3 7 4 22 21 31 42 39 40 32 26 22 20 20 19 17 16 15 12 10 8 5
9 8 8 5 5 7 6 6 7 7 7 8 9 6 5 3 7 12 17 18 8 2 2 8 8 32 37 39 40 36 29 23 20 19 18 16 17 15 13 11 7 5 4
9 8 7 5 5 5 5 6 7 7 7 8 8 7 7 10 11 14 20 17 14 11 3 6 16 38 40 36 35 30 27 23 17 16 14 15 14 13 11 8 6 4 3
8 8 8 6 6 7 6 7 7 7 8 9 8 8 9 12 12 14 12 16 22 21 13 15 30 39 33 37 32 28 24 21 17 14 13 13 13 12 9 7 5 2 2
8 8 8 7 6 7 7 8 8 7 8 8 8 9 12 13 13 16 12 13 20 21 27 24 29 29 32 33 30 27 22 18 15 13 13 12 10 8 7 4 3 3 4
10 9 9 8 9 10 11 8 9 9 8 8 9 11 12 15 19 15 15 14 18 24 28 29 23 26 30 32 28 24 19 17 15 13 11 10 8 6 5 3 2 3 2
10 10 9 9 10 10 10 11 10 10 11 11 10 10 12 12 15 16 18 20 24 24 26 26 26 22 22 30 27 24 18 15 13 11 11 8 7 7 7 8 9 10 11
10 10 11 10 11 12 13 12 12 11 12 12 11 10 11 11 15 18 20 22 25 24 24 23 20 22 19 23 22 22 22 15 12 11 13 13 15 16 18 17 15 13 11
11 11 10 10 9 10 16 16 15 13 12 12 14 12 13 15 16 17 21 22 26 27 24 21 21 20 20 21 24 27 17 18 10 12 17 17 15 17 16 17 13 12 10
10 9 10 10 12 15 16 16 14 12 12 13 14 16 18 17 16 18 20 20 24 26 27 27 28 27 24 27 24 18 15 13 14 15 19 17 13 17 14 15 10 9 8
9 8 10 11 15 16 13 10 12 11 14 13 14 18 21 19 23 21 24 26 25 24 18 22 27 32 22 20 20 17 16 18 17 15 12 12 12 15 13 13 8 7 7
9 7 9 14 17 17 10 10 12 13 15 15 16 19 21 19 22 19 23 24 17 15 14 15 17 20 20 20 18 19 17 16 13 9 5 16 14 13 10 7 6 7 8
12 12 14 15 14 14 12 11 14 18 20 20 20 21 25 26 21 15 13 14 14 14 18 21 19 21 21 18 18 11 15 12 12 8 11 7 17 14 7 7 4 3 6
Wind_Direction
248 251 255 249 249 253 254 259 257 260 255 246 231 225 219 219 224 238 240 245 245 239 241 250 241 216 200 194 161 159 157 157 165 169 159 170 172 167 161 162 157 154 151
252 252 253 248 247 244 246 247 253 252 247 238 225 214 215 218 231 241 238 247 250 242 241 244 234 207 194 191 182 183 183 175 170 170 169 169 177 168 165 154 149 145 141
254 250 247 244 241 239 241 246 250 245 240 232 222 214 214 222 237 239 239 253 250 241 241 241 224 198 187 181 179 180 178 179 180 167 168 173 174 165 158 149 146 145 138
250 243 246 247 242 226 231 238 239 236 231 224 215 206 209 225 238 238 247 253 240 240 246 240 221 197 180 174 176 178 170 169 172 169 174 170 174 164 158 152 149 139 143
242 242 247 245 228 215 225 231 232 229 225 219 207 202 215 233 241 240 247 236 230 240 233 242 218 196 178 172 168 171 169 164 170 170 173 172 165 158 153 152 144 149 145
234 240 251 241 223 217 218 221 223 217 217 212 200 197 212 227 227 237 216 227 215 225 208 228 180 187 173 180 168 164 165 163 164 168 166 166 157 154 150 145 150 150 135
232 245 241 227 218 215 217 218 219 214 209 196 168 138 174 196 204 224 203 201 198 174 184 187 171 160 190 182 155 166 165 162 160 161 166 151 150 144 143 147 152 147 140
233 244 230 221 216 206 209 210 210 204 201 192 185 160 167 144 119 132 153 137 137 149 176 179 183 180 167 150 176 177 167 159 160 157 157 148 145 137 142 162 162 156 149
244 240 224 211 200 207 211 204 208 198 185 186 195 181 172 163 147 152 148 135 154 162 192 175 172 177 171 169 171 169 160 157 153 150 149 152 137 144 163 168 158 156 148
234 229 210 196 199 209 209 203 195 196 193 183 190 194 185 142 161 155 129 120 146 154 167 174 166 171 177 174 169 164 160 151 143 146 145 134 158 163 165 161 154 158 153
183 171 172 188 205 202 198 198 190 199 204 198 192 172 146 139 130 146 127 132 145 161 172 174 181 165 165 171 171 155 147 142 144 144 138 149 155 159 159 154 160 159 159
186 171 170 176 175 189 198 192 192 202 208 213 208 189 128 148 154 166 137 130 127 127 158 156 173 174 173 164 153 140 143 140 141 139 147 153 152 158 158 158 162 165 168
167 156 164 171 172 196 195 187 192 199 207 217 199 196 182 132 331 157 151 131 120 93 129 159 148 157 161 149 139 138 141 141 142 146 149 152 157 160 157 162 165 165 171
152 154 147 143 156 160 169 181 190 194 198 204 179 166 156 185 208 175 156 148 115 93 73 130 155 163 145 142 139 143 143 140 145 148 156 158 161 159 160 157 164 168 175
155 148 144 148 155 150 155 155 167 169 175 179 171 181 227 187 149 171 160 150 125 110 108 118 141 146 138 138 143 149 149 146 147 155 154 159 162 161 153 160 163 170 192
151 151 150 156 150 143 150 144 147 159 166 166 178 168 154 145 136 140 153 140 141 134 102 119 96 131 137 141 144 144 141 142 150 151 157 161 158 156 149 165 173 187 214
153 161 163 158 145 155 146 149 148 149 146 151 147 144 143 147 136 140 157 151 141 142 118 115 114 140 133 136 140 140 143 147 144 150 157 156 157 160 169 179 189 204 272
150 166 167 158 152 140 135 137 134 142 147 140 131 138 135 137 142 146 152 141 137 142 134 131 132 132 132 141 140 140 145 142 139 139 157 155 153 160 166 183 209 241 282
143 152 161 160 150 139 137 135 132 132 136 135 135 132 132 132 141 153 147 134 136 131 139 136 129 128 136 142 139 139 141 135 138 151 144 143 151 150 167 192 250 276 284
131 141 145 141 137 131 135 133 135 130 129 135 135 131 131 146 146 148 154 144 138 128 134 137 133 127 130 141 141 134 130 134 132 134 132 127 123 119 112 120 117 113 97
126 133 133 130 132 135 138 133 131 125 122 124 132 130 133 136 144 152 146 142 140 133 139 134 135 128 133 136 137 143 139 145 119 125 113 108 113 103 99 99 98 89 83
132 136 134 130 132 140 144 139 132 129 124 125 129 128 135 140 139 150 145 145 146 141 142 141 143 139 142 146 146 153 153 150 126 128 118 111 114 100 93 95 96 82 66
128 134 140 144 139 135 140 138 134 131 134 136 136 130 133 130 123 131 153 144 148 145 138 142 141 150 157 164 158 159 156 146 133 139 127 113 112 107 101 96 79 71 57
122 126 154 152 147 141 138 135 138 140 143 141 135 140 134 129 132 123 120 124 115 122 124 147 156 167 163 163 161 156 148 134 128 141 138 129 137 119 114 99 78 51 43
124 112 133 153 152 148 148 147 144 142 145 140 138 140 140 137 139 129 131 138 135 120 118 137 152 159 161 160 161 147 147 144 132 145 140 142 158 138 132 132 88 51 60
127 118 120 137 138 142 142 142 144 143 142 144 143 140 144 136 135 133 143 146 135 127 122 126 128 144 153 155 158 164 163 164 144 142 165 137 160 161 169 169 133 83 51